Theta_e
303 303 304 303 303 303 302 301 300 300 298 298 301 302 302 302 302 302 302 301 301 301 301 301 302 301 301 301 300 300 300 300 300 300 300 302 303 302 303 302 301 300 300 301 301 302 304 302 303 303 309 318 321 319 319 321 324 325 327 328 328 330 331 331 332 331 330 328 324 324 325 325 324 323 323 324 323 322 323 323 323 325 326 327 327 327 327 326
303 304 304 304 303 302 301 300 300 300 298 299 302 302 302 302 302 301 301 301 301 301 301 301 301 302 301 301 300 299 300 300 300 300 301 302 303 304 305 303 301 300 300 301 301 303 304 303 303 302 309 318 319 318 319 321 324 325 327 328 329 331 328 327 328 328 328 327 323 323 325 325 324 323 323 324 322 322 322 320 323 324 324 326 326 326 327 327
304 304 304 304 303 301 300 300 300 299 298 300 302 302 302 302 301 301 301 301 301 301 301 302 301 302 301 301 300 299 300 300 300 302 303 303 304 304 304 303 302 301 300 301 301 303 304 304 303 303 311 318 318 319 320 321 323 323 325 329 330 329 326 325 326 326 326 325 323 323 324 324 324 324 324 324 322 322 321 320 321 321 321 324 325 325 327 327
304 304 303 303 303 301 300 300 301 299 298 301 302 302 302 302 301 301 301 300 301 301 302 302 302 301 301 301 300 300 299 300 301 303 304 304 304 304 303 303 303 301 300 300 301 303 303 304 303 305 313 318 318 319 321 322 323 323 325 330 328 325 327 326 325 326 324 324 324 323 324 323 323 324 324 323 324 324 321 321 322 322 322 324 324 325 326 326
303 303 302 302 302 301 300 301 300 298 299 301 302 302 302 301 301 301 300 301 302 302 302 301 302 301 301 301 300 300 299 301 303 304 304 304 304 304 304 304 304 302 301 300 301 303 303 304 303 306 313 317 318 320 321 321 322 324 324 325 323 324 328 326 325 325 324 324 324 323 323 322 322 323 323 324 325 324 322 323 324 325 326 325 324 325 325 325
302 302 301 301 301 301 300 301 300 298 300 302 302 302 301 301 301 301 301 302 302 302 302 302 302 301 301 301 300 299 299 301 304 303 303 304 304 304 304 304 303 303 301 300 301 303 304 304 304 307 311 315 319 321 322 321 322 325 323 321 321 323 325 324 324 325 324 324 323 322 322 321 321 320 321 322 322 322 323 324 325 327 327 327 326 325 324 324
302 302 301 300 300 300 300 300 299 298 301 302 302 302 301 301 301 301 302 302 302 302 302 302 301 301 301 300 300 300 300 300 302 303 303 304 304 303 303 303 303 302 301 301 301 303 304 304 304 306 308 315 320 321 322 322 322 326 324 320 320 321 321 322 324 324 324 323 321 322 321 320 320 319 319 318 319 321 323 324 325 326 327 327 326 325 324 323
302 302 301 300 300 300 300 300 298 298 301 302 301 301 301 301 301 302 303 302 302 302 302 302 301 301 301 301 302 302 301 301 302 303 303 303 303 303 302 302 302 302 301 301 301 303 304 304 304 304 306 313 318 320 322 322 323 326 324 319 318 319 319 322 323 322 322 321 321 321 319 318 318 318 316 315 318 321 321 322 324 325 325 326 325 324 324 323
302 302 301 300 300 300 300 300 298 299 302 302 301 301 301 301 302 303 303 303 303 303 302 302 302 302 302 303 304 303 303 302 303 303 303 303 303 302 302 302 302 301 301 301 302 303 305 304 304 304 305 310 316 321 322 323 324 323 320 318 317 318 319 321 320 319 320 319 320 320 316 316 317 318 317 314 317 319 320 321 322 323 323 323 323 323 323 324
301 302 301 300 300 300 300 299 298 300 302 302 301 301 301 302 302 303 303 303 303 303 303 303 303 303 304 304 304 304 303 303 304 303 303 303 303 302 302 302 302 301 301 302 303 304 305 304 304 305 306 308 315 322 322 323 323 320 318 317 317 317 318 319 318 317 318 318 319 319 316 316 316 320 319 315 316 318 319 320 320 322 323 323 323 323 323 324
301 302 301 300 300 299 299 299 299 301 302 301 301 301 301 302 302 303 303 303 303 303 303 303 303 303 303 304 304 305 304 303 304 303 303 303 303 303 303 302 301 302 302 302 304 304 305 306 305 306 308 310 316 320 321 321 320 319 318 318 318 318 317 318 318 317 318 317 318 317 316 317 317 318 317 314 315 317 318 319 319 321 322 323 323 323 323 323
302 302 301 300 300 299 299 299 299 301 302 301 301 301 301 302 303 303 303 303 303 303 304 304 303 303 303 303 304 305 304 303 303 303 303 303 303 303 302 302 302 302 302 302 304 304 305 306 306 307 309 313 318 320 320 320 319 319 320 320 319 319 318 318 317 317 318 318 318 319 321 320 317 315 313 314 315 316 317 318 318 319 321 322 322 323 323 323
302 302 301 300 300 299 299 299 299 301 302 301 301 301 302 302 302 303 303 303 304 303 303 304 304 303 303 303 304 304 304 303 303 303 303 303 303 303 302 302 302 303 302 302 304 304 305 306 306 307 309 315 319 320 320 319 319 321 321 321 321 321 320 318 317 318 318 318 317 321 327 323 315 313 313 314 315 316 317 317 318 318 318 320 322 322 323 323
302 302 300 300 299 299 299 299 299 301 302 301 301 301 302 302 302 302 302 303 304 304 303 303 304 303 303 304 304 304 303 303 303 303 303 303 303 302 302 302 303 304 302 302 304 304 304 306 306 306 310 315 319 319 319 319 320 322 322 323 324 323 321 318 318 318 319 318 317 322 329 324 315 312 312 313 315 316 315 316 318 318 317 319 320 322 323 323
302 301 300 300 299 299 299 299 299 301 301 301 301 301 301 301 301 301 302 302 303 304 304 303 303 303 303 303 304 303 303 304 303 303 304 304 303 302 302 302 303 304 303 302 303 304 305 305 306 309 313 317 319 319 319 320 321 322 322 324 324 322 320 319 318 318 320 319 316 321 327 322 315 312 312 313 314 315 315 315 316 317 317 318 319 320 322 322
302 301 300 299 299 299 299 299 300 301 301 301 301 301 301 301 300 301 302 301 303 304 304 303 303 303 303 303 303 303 303 303 304 304 304 303 302 302 301 301 303 304 302 301 302 304 304 305 307 313 316 317 319 318 319 320 320 321 324 324 323 321 319 319 319 317 319 320 318 320 324 321 316 313 311 312 313 314 315 315 315 316 317 318 319 319 320 321
302 301 300 300 299 299 299 299 300 301 301 301 301 300 300 300 300 301 302 301 303 303 303 304 303 303 303 302 303 303 303 303 304 304 303 303 302 302 302 303 303 303 302 302 302 303 304 306 311 316 318 318 319 318 320 321 320 321 324 324 321 319 318 319 321 319 317 320 320 319 321 318 314 312 311 312 313 313 314 315 315 316 317 318 319 320 321 321
302 300 300 300 299 299 299 299 300 301 301 301 301 300 300 300 300 302 302 301 303 303 304 304 303 304 304 303 303 303 303 303 303 304 303 304 303 303 304 304 304 304 304 303 303 304 306 310 315 318 318 318 320 320 321 322 321 322 323 323 321 318 319 319 320 321 319 321 321 319 319 315 311 311 311 312 313 313 313 314 315 316 317 318 318 319 321 322
302 300 300 300 299 299 299 299 300 301 301 301 301 300 300 300 300 302 301 301 303 303 305 304 303 304 304 303 303 303 303 303 303 305 305 305 304 304 305 305 305 306 304 303 305 306 310 314 317 319 320 318 319 321 322 322 320 322 323 322 322 320 320 319 320 320 318 321 322 319 319 315 311 312 311 311 312 313 313 313 314 315 316 317 318 319 320 322
302 300 300 300 300 299 299 299 300 301 301 301 300 300 300 299 301 302 300 301 303 303 304 303 302 303 303 303 303 304 304 304 304 305 305 305 304 305 306 306 306 306 304 305 308 309 311 317 318 318 319 317 318 318 320 321 320 322 323 323 322 322 321 319 320 319 316 323 322 316 316 315 312 312 311 311 311 311 313 313 314 314 315 316 317 319 321 322
302 300 300 300 299 299 299 299 300 301 301 301 300 300 300 299 300 301 299 301 302 302 302 303 303 303 302 304 304 304 305 305 306 306 305 305 305 306 306 306 307 307 305 305 308 312 314 317 316 314 313 313 315 317 318 319 320 323 323 323 323 322 322 319 320 319 317 325 323 315 320 318 312 313 312 311 312 312 312 312 313 314 314 316 317 318 320 321
302 301 300 299 299 299 298 298 300 300 301 301 300 300 299 299 299 299 299 301 302 301 301 302 303 303 303 304 304 304 304 305 306 306 306 305 305 306 305 307 309 309 307 308 311 315 316 316 313 309 307 310 314 317 318 319 320 323 323 323 323 321 321 319 319 320 319 325 325 319 324 322 313 313 313 311 312 312 312 312 313 314 314 315 316 318 319 321
302 301 300 299 299 299 298 299 299 300 300 301 300 300 299 299 299 298 299 300 302 301 301 303 304 303 304 304 304 304 303 304 306 306 307 306 306 306 305 308 312 312 312 314 315 315 316 314 309 305 307 313 317 317 318 319 319 321 321 321 322 321 322 321 320 321 318 321 323 321 325 325 317 315 313 312 312 312 313 313 313 313 314 315 317 318 319 320
302 301 300 299 300 299 298 299 299 300 300 300 300 300 300 300 299 299 299 299 301 301 301 303 303 303 304 303 303 304 303 304 305 306 307 307 306 307 306 307 312 313 310 312 314 314 314 309 305 306 311 317 319 317 317 319 318 320 320 319 321 322 323 321 320 321 319 318 320 321 325 327 324 322 317 312 311 312 312 313 313 313 314 315 317 318 319 320
301 301 300 299 300 299 298 298 299 299 300 300 300 300 300 300 299 299 300 301 303 303 302 303 303 303 303 303 304 303 304 305 305 305 307 307 307 308 307 306 310 312 309 310 313 315 313 307 305 311 315 316 317 317 317 318 319 320 320 318 319 322 323 321 320 321 323 323 320 320 326 329 327 326 321 314 312 312 311 311 312 313 314 315 316 317 318 319
301 301 301 299 300 300 298 299 299 299 300 300 300 300 300 299 299 299 301 306 307 303 302 303 303 304 303 303 304 303 306 307 305 305 306 307 307 308 309 307 307 309 308 309 311 312 310 307 307 312 315 315 316 317 316 317 321 320 318 320 318 319 320 320 321 323 324 324 319 318 324 328 329 327 321 315 314 313 311 311 311 312 314 315 315 317 318 319
301 301 300 299 300 300 299 299 299 299 300 300 299 300 299 299 299 298 301 308 307 300 301 303 303 303 303 302 304 306 307 307 306 306 306 307 308 307 311 311 310 309 305 307 312 309 307 310 311 312 315 316 317 318 314 315 321 320 317 319 318 318 319 320 323 323 320 320 319 319 321 324 330 327 317 315 316 315 313 312 311 311 313 314 316 317 318 319
301 301 301 299 299 300 300 299 299 299 299 299 300 299 299 299 299 299 304 308 304 300 302 303 303 303 303 304 304 305 305 304 306 308 306 307 307 307 310 309 309 309 304 309 317 308 305 310 310 311 317 316 314 313 310 314 321 318 316 318 317 318 319 320 321 320 318 321 323 321 319 322 329 325 314 314 320 321 320 316 313 312 312 313 315 317 318 318
301 301 300 299 299 299 299 298 298 298 299 299 299 298 299 300 298 301 308 306 300 301 302 302 304 303 302 304 304 302 303 303 304 307 307 307 308 308 309 307 306 308 305 309 314 308 304 307 304 307 314 314 311 308 308 316 320 316 315 317 317 317 318 319 320 321 322 325 325 321 318 320 328 327 317 316 322 324 324 320 314 312 313 313 314 316 317 318
301 301 300 299 299 299 299 299 299 299 299 299 298 298 299 300 303 308 309 303 300 301 302 302 303 301 301 305 305 302 302 303 303 305 307 306 308 308 307 306 306 309 309 308 310 308 305 305 303 305 308 307 307 307 307 312 316 315 317 318 319 321 322 323 323 324 326 326 321 316 315 317 324 330 324 321 324 323 324 325 318 312 312 314 314 315 317 317
301 301 300 299 299 299 299 299 299 300 299 298 298 300 300 302 309 313 307 300 300 302 303 303 302 301 302 303 304 302 303 303 301 304 307 305 307 307 306 310 311 313 315 312 311 310 306 307 306 304 304 303 307 312 311 312 314 317 320 320 321 323 323 324 324 324 326 324 317 313 313 315 322 327 321 319 322 319 319 325 322 314 312 312 314 315 316 317
301 300 300 299 299 300 300 299 300 299 297 299 300 300 303 305 308 308 303 300 302 302 302 302 301 302 303 303 303 302 303 304 301 302 304 304 304 303 303 307 309 312 316 312 313 314 310 310 307 305 304 303 310 318 316 316 319 319 321 321 322 322 323 324 323 322 323 320 313 311 314 317 321 324 318 318 322 316 310 312 312 309 309 311 312 314 315 316
301 300 300 299 299 300 300 300 300 298 298 301 299 300 309 313 306 301 301 302 301 299 299 300 302 302 304 305 303 301 303 304 302 301 302 304 305 303 302 301 302 309 314 311 313 317 314 311 309 310 308 304 308 317 320 319 320 320 320 322 324 323 323 324 319 318 320 317 312 311 315 320 323 321 318 318 316 309 304 305 307 307 309 310 311 312 315 316
300 300 300 299 299 299 299 299 298 298 299 299 300 304 310 310 303 299 302 303 300 298 298 299 302 304 303 303 301 301 304 304 302 303 304 307 308 306 306 303 301 307 312 311 311 313 314 314 312 311 308 306 307 310 314 318 319 317 315 319 323 322 324 324 320 320 319 315 313 312 316 324 325 319 313 309 306 304 304 306 308 310 312 312 311 312 315 315
300 300 299 299 299 298 299 299 297 299 298 299 306 311 309 305 302 302 304 302 300 300 299 298 303 308 306 304 301 300 303 304 303 304 305 306 306 304 304 304 301 304 311 313 309 309 313 313 312 309 305 305 306 304 305 314 321 314 310 317 317 315 320 319 314 316 316 316 317 315 318 322 319 311 306 304 304 305 305 306 309 311 313 314 313 313 315 316
300 300 299 299 299 298 299 298 298 299 298 303 312 311 306 304 301 300 301 300 299 299 300 301 305 309 308 307 306 302 301 303 304 308 307 302 302 302 302 303 300 300 307 312 310 310 312 313 312 310 305 304 304 303 302 308 318 316 312 313 309 307 316 318 311 309 312 317 318 315 319 321 315 310 307 307 309 309 306 306 308 311 312 314 314 314 315 316
300 299 299 299 298 299 299 298 298 299 298 305 314 306 300 300 298 297 298 298 298 297 303 307 303 302 305 307 308 304 303 304 304 308 308 302 303 303 301 303 300 298 300 305 309 310 310 314 312 309 310 306 301 302 302 301 308 318 316 310 304 305 312 317 316 314 313 316 317 315 316 318 317 316 312 308 311 314 311 306 305 308 312 313 314 314 315 316
300 299 299 299 299 299 299 299 300 300 299 307 313 304 298 297 295 295 296 297 297 298 304 308 300 298 302 304 305 302 303 306 306 307 307 305 305 302 301 303 301 298 296 299 309 310 308 315 314 309 312 308 302 305 309 305 303 308 310 305 305 311 315 315 315 317 316 313 314 315 311 309 313 319 316 312 314 316 314 309 306 308 311 312 314 315 315 316
300 300 299 299 299 298 299 300 300 300 303 310 313 305 299 297 295 294 296 296 297 297 301 303 299 299 300 301 303 300 301 305 304 304 305 305 305 301 299 301 301 301 296 298 309 308 306 315 317 313 311 307 307 310 311 311 307 306 308 305 307 313 313 310 309 313 315 311 309 312 313 312 312 316 318 316 317 318 316 314 310 307 310 313 315 316 315 316
302 301 299 298 299 299 299 300 300 304 308 305 303 300 296 296 296 294 296 297 296 297 300 300 299 301 300 300 300 299 301 303 302 304 304 303 305 303 299 298 301 302 298 298 305 306 308 315 316 316 313 310 311 307 303 306 307 309 312 309 308 306 304 305 305 305 309 312 311 308 313 321 314 310 314 314 315 316 314 314 309 306 310 313 313 316 316 316
303 301 299 298 299 300 300 301 298 300 305 300 296 298 297 296 296 295 296 297 296 296 297 299 300 301 301 301 299 299 303 304 302 303 303 303 304 304 299 297 298 300 300 304 307 306 309 317 316 315 313 310 308 302 298 299 300 303 306 305 306 305 307 312 306 300 303 308 310 306 310 322 313 306 312 311 307 306 305 306 307 306 310 312 312 315 314 315
304 304 301 299 301 300 301 303 294 291 300 301 296 297 298 297 296 295 296 296 297 296 294 297 299 300 301 301 299 301 304 305 302 302 303 302 303 303 299 296 297 297 300 306 307 301 304 314 315 311 308 305 301 295 293 294 296 299 300 300 303 305 312 320 309 303 303 301 301 301 306 318 311 301 303 303 299 300 300 301 303 306 309 310 311 313 313 314
303 302 301 300 301 300 300 302 298 296 300 298 294 295 297 296 295 296 296 295 297 296 295 297 297 298 299 298 298 302 303 303 302 301 303 302 302 301 297 296 297 297 300 306 305 301 304 313 314 312 311 308 302 296 293 291 294 302 302 299 301 301 307 314 309 306 307 303 303 304 306 315 310 295 295 297 297 299 300 300 301 303 306 309 310 311 312 312
302 300 300 300 300 301 301 303 306 305 300 295 295 296 296 295 294 296 297 297 297 297 297 298 296 296 297 295 298 301 300 302 302 300 301 302 301 298 296 297 298 297 300 304 304 303 306 311 313 316 318 315 311 309 306 301 301 307 305 300 300 301 302 305 304 305 307 303 305 309 309 313 308 297 295 296 296 298 300 301 302 302 305 307 308 309 310 310
301 300 299 300 300 300 301 302 305 307 303 300 300 298 297 296 295 296 296 296 295 295 296 298 296 296 296 295 299 300 298 301 304 301 300 302 301 298 296 297 297 296 299 299 299 302 306 307 311 319 320 316 318 318 314 311 308 307 304 301 301 302 302 305 306 308 309 302 301 309 313 312 308 303 302 299 298 301 301 301 303 303 305 307 307 307 308 308
300 301 300 300 300 299 299 298 299 304 304 303 302 298 298 299 296 295 295 295 295 293 294 296 295 296 298 298 301 303 300 299 302 304 303 303 303 298 295 297 297 296 299 298 296 300 305 304 304 313 318 315 316 311 302 302 308 308 305 303 303 302 302 306 309 314 313 306 306 312 310 308 309 309 307 305 305 305 301 300 304 304 305 307 307 307 307 307
300 302 301 301 301 299 299 297 296 299 301 302 302 299 299 300 297 296 296 295 295 294 294 295 295 297 301 301 303 305 302 300 303 304 303 302 302 298 296 297 297 297 298 297 295 300 310 308 300 303 308 303 302 301 294 297 306 308 306 305 304 303 301 304 311 315 310 307 314 314 303 304 310 310 309 309 309 304 299 299 303 305 305 307 307 307 306 306
301 300 300 301 302 301 301 300 297 295 297 300 300 298 300 301 300 299 298 295 294 295 296 297 297 299 301 301 303 305 303 304 305 303 301 302 301 301 300 298 297 297 296 296 295 299 311 310 297 297 302 297 295 296 295 298 301 301 303 306 305 304 302 304 310 311 307 308 315 310 301 304 308 307 307 307 305 303 301 301 302 304 305 307 306 307 307 306
300 300 299 300 301 299 300 299 296 296 299 301 302 300 301 303 302 300 297 296 296 295 296 300 301 301 303 301 303 307 306 306 307 304 303 303 301 303 306 303 300 296 295 298 296 295 305 308 297 297 303 299 295 295 294 297 299 300 304 305 304 305 304 304 307 307 304 306 308 303 301 303 303 302 303 302 300 301 301 302 302 302 304 306 307 307 307 307
300 300 299 300 300 297 296 296 296 301 302 300 301 300 299 301 302 299 296 297 300 297 295 301 303 301 301 302 303 306 306 305 308 306 304 304 303 304 307 307 302 298 297 301 298 296 303 304 296 298 305 302 299 296 295 296 298 301 306 303 300 301 301 300 302 303 302 305 306 303 303 306 303 301 302 301 301 301 300 301 302 303 303 304 306 307 307 308
300 300 299 302 303 298 296 295 296 302 304 301 301 300 299 301 301 299 297 296 298 299 297 300 303 299 298 300 303 304 301 300 303 303 301 303 304 303 303 301 300 301 303 301 300 303 308 304 297 300 308 307 300 298 299 298 296 299 305 305 301 300 302 303 302 302 304 308 308 305 306 310 306 300 301 302 300 299 300 301 302 303 303 303 304 307 307 308
299 300 299 301 303 299 297 296 296 301 305 302 300 300 299 298 296 297 300 297 295 298 298 295 297 300 301 301 302 302 299 297 299 299 299 301 301 299 299 298 298 302 306 304 302 303 306 308 305 303 307 307 300 298 302 301 301 306 310 306 301 299 301 301 300 301 302 306 308 307 308 309 303 299 303 305 301 300 301 302 303 304 303 303 304 306 306 307
Wind_Speed
11 11 12 11 11 9 5 5 5 5 3 3 2 2 2 2 3 4 6 7 9 10 12 13 14 14 14 13 12 12 12 12 11 11 9 8 6 6 8 9 9 8 7 7 5 3 5 7 7 7 7 14 16 18 18 15 15 11 5 4 5 3 3 4 5 6 7 7 11 16 18 15 7 9 17 16 18 21 17 15 15 16 18 18 24 32 31 29
12 12 12 12 10 8 6 5 5 5 3 2 2 2 1 2 3 5 6 8 10 12 13 14 14 14 13 13 11 11 12 13 13 12 10 8 7 8 9 9 9 9 7 5 4 1 1 3 3 7 10 11 12 17 15 15 16 7 2 4 5 5 2 2 6 6 7 11 13 15 19 19 12 15 19 12 11 17 16 14 18 22 21 22 29 32 30 29
12 12 13 12 10 7 6 5 5 4 2 3 3 2 1 1 3 5 8 10 12 13 14 15 15 14 13 12 11 11 12 13 14 11 7 6 6 8 8 8 9 8 6 5 3 1 1 1 2 9 14 10 9 15 13 13 13 4 2 5 4 4 1 0 6 6 8 15 15 13 18 19 16 17 16 12 12 11 9 13 20 24 26 29 32 30 30 30
12 13 13 12 9 7 5 5 5 3 3 4 3 2 0 2 4 6 9 11 13 14 14 15 15 14 13 11 11 9 10 12 9 4 3 3 5 7 7 8 9 8 7 5 3 1 1 2 4 12 14 8 9 11 10 13 11 4 3 4 2 3 1 2 8 10 13 17 15 13 16 15 15 16 17 18 12 5 7 16 23 28 32 35 33 31 30 29
13 14 14 12 9 7 5 5 4 3 5 5 4 2 1 2 5 7 10 13 13 13 14 15 15 14 12 11 10 8 7 6 2 3 1 2 6 7 8 9 9 9 7 5 3 1 1 4 7 12 9 5 9 7 8 16 13 4 2 2 2 2 1 2 12 18 17 19 16 14 12 11 13 14 15 14 6 5 13 19 26 32 35 36 35 33 30 29
13 14 13 11 9 7 4 4 3 4 6 5 5 3 2 3 5 8 11 13 13 13 14 15 15 14 12 10 9 7 4 2 1 3 3 5 9 9 9 10 9 9 7 5 2 1 1 4 8 12 5 2 9 5 7 19 15 4 1 3 4 4 3 3 14 21 22 24 17 13 12 14 15 11 8 8 6 8 16 21 28 32 34 36 34 32 30 28
12 14 13 10 10 7 4 3 3 5 6 6 5 3 2 3 5 7 10 12 12 13 14 15 14 13 11 10 9 6 5 6 6 7 7 8 9 9 10 10 9 8 6 5 2 2 3 6 9 13 5 0 7 5 7 17 15 5 1 3 5 9 8 5 15 20 22 21 17 18 17 14 12 8 7 10 10 12 17 22 30 33 35 35 33 32 30 28
12 13 13 10 10 8 5 3 4 7 8 7 5 4 3 3 4 7 10 12 12 12 13 13 13 12 11 9 7 6 7 7 7 7 8 8 9 9 11 11 9 7 6 5 3 3 4 6 10 12 4 2 6 7 10 13 10 4 2 4 6 11 13 11 15 18 21 20 22 23 16 12 13 11 8 7 10 16 18 25 32 35 35 35 34 32 29 27
12 13 13 10 9 8 6 3 5 8 8 8 6 5 3 2 4 7 10 11 12 11 11 11 11 11 10 9 8 6 5 5 6 8 9 9 9 9 11 11 9 6 5 4 3 4 5 6 10 11 4 5 5 9 16 12 6 6 6 8 9 12 15 17 16 17 19 20 24 20 12 14 16 12 8 4 10 17 21 29 32 34 34 33 32 30 29 27
12 13 12 10 10 9 6 3 6 9 9 8 7 5 2 2 4 7 9 11 11 10 10 9 9 10 10 10 7 3 4 7 8 10 11 11 10 9 10 10 9 6 4 3 3 4 5 5 9 10 5 5 8 11 15 10 8 15 16 15 15 15 15 17 18 17 14 11 18 18 9 11 10 6 4 3 12 18 24 29 30 32 32 31 29 29 28 27
12 13 11 10 9 9 5 3 7 10 10 8 7 5 2 2 4 7 9 11 11 10 9 9 9 10 12 12 7 3 6 11 11 12 13 12 10 10 10 9 8 6 4 3 4 4 5 5 7 9 3 3 10 9 9 10 17 26 23 16 14 16 15 13 15 15 12 5 12 20 11 8 7 4 3 6 13 17 24 27 26 29 30 30 29 28 27 26
11 12 11 9 9 8 5 3 8 11 10 9 7 4 2 2 4 6 9 11 11 10 10 9 9 11 15 14 10 6 8 13 13 14 13 12 10 10 11 8 6 5 3 4 5 5 5 5 7 8 2 3 10 6 9 17 21 25 21 10 6 11 10 7 6 10 11 3 9 19 11 5 5 4 5 9 13 17 22 23 23 25 27 28 27 27 27 25
11 12 10 9 9 8 4 4 9 12 10 9 7 4 2 2 4 6 9 11 12 11 11 11 10 14 17 13 8 6 9 13 14 13 12 11 9 10 11 8 5 5 4 4 6 6 6 5 5 5 3 3 7 7 14 19 14 12 13 7 4 6 4 5 3 8 10 4 5 10 6 2 3 3 6 9 13 18 20 22 22 21 23 26 25 25 25 24
11 11 9 8 9 8 4 4 9 12 11 9 7 4 2 2 4 7 9 11 12 12 13 12 12 15 15 9 5 7 11 13 12 11 11 10 9 9 8 7 5 5 3 4 6 7 7 6 4 3 4 5 10 14 15 11 6 4 7 5 3 4 2 4 4 5 6 2 4 5 3 3 3 4 5 8 13 16 16 18 21 19 19 23 24 24 24 24
10 10 8 7 9 8 4 4 10 12 11 9 7 4 2 1 5 7 9 11 12 12 12 10 12 16 12 6 5 9 12 12 9 9 11 11 11 8 6 6 5 4 3 4 6 7 7 5 4 3 3 11 16 14 7 3 3 2 4 5 3 3 1 3 4 4 1 2 4 4 3 2 3 6 6 8 11 13 13 13 17 18 18 20 22 23 23 23
10 9 7 7 9 7 4 5 11 13 11 9 7 4 1 2 7 8 8 11 11 12 10 7 15 15 5 4 9 11 14 14 10 9 10 10 10 8 5 4 5 4 2 4 5 7 7 5 3 1 8 13 11 8 5 3 2 1 1 5 6 5 1 2 3 4 3 3 3 2 4 2 2 8 8 8 9 10 11 11 14 15 16 18 20 20 21 21
9 8 7 7 8 7 3 6 12 13 11 9 7 4 2 4 8 8 8 10 11 12 7 6 17 12 2 6 14 15 18 16 10 8 8 8 7 6 2 1 3 3 3 5 5 6 6 4 2 4 8 6 4 7 7 4 2 0 2 3 5 7 4 2 1 1 3 4 2 3 4 3 3 8 9 7 8 8 9 9 12 13 14 16 18 19 20 21
9 8 7 7 8 6 3 6 12 13 11 9 6 4 4 6 8 7 7 10 12 11 3 8 17 6 2 11 17 18 20 14 8 7 8 7 5 3 0 3 3 5 6 5 4 6 5 3 3 4 4 3 5 7 6 6 7 8 6 5 6 6 6 5 2 1 2 2 3 5 6 5 4 6 8 7 8 8 7 7 10 12 13 15 17 18 19 21
8 7 6 7 8 6 2 7 12 12 11 9 6 4 5 7 6 5 7 9 11 7 1 9 14 2 6 15 17 17 16 9 8 9 8 6 2 1 2 3 5 7 6 4 3 4 3 3 3 3 2 4 6 4 4 6 9 11 8 7 8 7 5 4 1 1 1 2 4 5 5 5 5 5 6 8 9 8 7 7 8 10 12 14 16 18 19 20
7 7 6 7 7 6 1 7 12 12 10 8 5 4 4 6 4 3 8 8 8 7 3 9 12 7 10 14 14 16 12 6 8 11 7 3 2 3 2 3 5 5 4 3 2 2 3 3 1 2 2 4 2 0 5 9 9 10 9 8 9 8 5 3 1 3 2 1 4 4 4 5 5 5 5 8 8 7 7 7 8 9 11 14 15 17 19 20
7 6 6 6 7 5 1 7 12 12 10 8 4 3 2 5 3 4 9 6 5 9 9 10 12 11 11 11 14 16 12 7 9 11 8 3 3 2 1 2 3 4 3 1 2 2 4 3 1 1 2 1 2 1 9 12 10 9 8 9 8 6 5 3 2 2 5 2 3 3 3 5 4 5 5 7 7 7 11 11 10 10 10 12 15 17 19 20
6 6 5 6 6 4 1 7 11 11 10 8 5 2 1 4 3 6 7 4 4 9 11 11 10 12 13 11 14 16 12 9 10 12 10 3 2 1 1 2 4 3 3 2 4 3 4 2 2 3 4 2 2 2 11 13 10 9 6 8 7 6 7 4 3 3 6 3 1 3 2 2 3 3 5 9 8 7 11 13 12 12 12 13 16 17 18 20
6 6 5 5 5 3 2 6 10 11 9 7 5 3 2 3 5 8 8 4 4 8 12 12 11 15 16 12 15 16 10 7 8 13 13 6 3 3 3 4 4 3 3 4 5 3 4 1 4 5 4 1 5 4 11 11 6 6 5 6 6 6 7 3 1 3 4 2 2 2 2 1 2 3 4 9 11 9 10 12 12 14 15 15 16 17 18 20
6 6 4 4 4 2 2 6 9 9 8 7 5 3 3 4 5 8 8 3 3 6 12 11 10 16 16 13 17 14 8 7 8 13 15 9 5 4 3 3 5 5 4 4 7 6 3 2 6 3 1 3 8 7 10 10 4 3 4 5 8 8 6 5 5 3 3 4 2 4 2 3 1 2 3 5 9 10 11 12 13 15 16 17 17 18 19 20
5 6 4 3 3 1 2 5 8 8 7 7 6 4 4 4 6 8 7 1 2 8 12 10 9 14 16 15 17 10 4 6 10 14 14 9 7 3 2 4 4 3 2 2 8 7 3 6 6 3 3 5 8 5 4 7 7 2 1 3 7 8 9 10 9 5 3 2 1 3 2 3 2 3 3 3 4 7 10 13 15 18 19 20 20 21 21 21
5 6 4 2 2 2 3 5 6 7 7 7 6 5 5 5 6 6 4 3 2 7 10 9 7 11 15 17 16 6 3 5 9 15 13 8 7 3 2 5 4 3 1 2 5 4 3 7 6 4 4 6 7 5 3 2 8 3 2 4 3 5 12 14 11 5 3 2 1 2 2 1 3 4 2 2 4 5 7 11 16 20 22 23 24 24 24 23
5 5 3 1 2 2 3 3 4 7 6 5 6 5 6 6 6 5 3 4 4 5 6 8 6 10 14 15 16 6 1 8 8 13 15 8 7 7 5 4 4 3 0 2 4 2 4 7 6 5 5 5 5 4 5 2 7 4 4 8 6 6 11 12 8 4 2 3 2 3 3 1 2 4 2 0 3 5 7 10 14 19 23 25 26 26 26 26
4 5 2 1 1 1 2 3 4 6 5 4 3 4 4 3 3 2 4 4 4 5 4 6 6 12 14 11 15 9 1 7 6 8 14 10 7 10 9 4 4 3 3 4 3 1 2 6 5 3 5 5 2 0 4 2 4 1 4 8 6 6 7 6 7 4 2 3 1 3 2 1 3 4 2 2 2 7 9 9 11 18 23 25 28 29 28 27
4 4 1 1 1 1 2 2 3 5 5 3 1 1 1 1 2 2 6 2 3 4 4 7 7 13 16 8 14 17 6 5 7 6 11 12 9 11 10 4 8 8 9 9 5 0 1 2 2 1 4 3 2 3 4 1 3 3 7 9 6 5 5 5 5 4 3 3 1 2 2 1 4 4 1 1 2 7 9 6 7 16 24 27 29 30 30 28
4 3 1 1 1 1 2 2 3 4 3 2 1 2 2 2 2 5 5 1 2 4 5 7 6 10 15 7 9 18 10 6 11 10 11 12 14 17 11 5 9 9 8 10 7 1 1 0 1 4 4 1 3 2 2 1 6 9 9 8 6 5 4 4 3 4 4 2 2 2 3 2 2 4 2 2 4 5 5 4 3 10 19 25 29 31 32 31
4 2 1 1 1 2 2 3 3 3 3 2 3 2 1 2 3 6 2 3 1 5 5 5 5 7 10 5 4 12 7 6 13 12 10 10 13 16 10 5 7 6 5 7 5 3 5 4 2 3 4 3 2 3 5 3 4 7 5 5 5 3 3 3 3 3 3 1 3 2 1 3 1 5 4 4 6 4 4 4 4 5 10 17 24 29 32 32
3 2 1 1 2 2 2 3 2 3 4 4 3 1 1 3 4 2 1 4 2 3 3 2 4 5 6 3 4 7 4 4 9 8 5 5 6 8 6 2 2 3 4 4 2 5 6 3 3 4 5 8 4 2 4 4 3 4 5 5 4 2 1 2 1 1 1 1 3 2 1 2 4 6 5 5 7 5 4 5 7 9 11 13 17 23 28 30
2 1 2 1 2 2 2 4 3 5 5 3 2 1 4 5 2 2 2 3 1 2 2 2 4 4 4 4 5 6 3 3 6 5 3 2 4 3 2 2 1 1 2 1 1 4 3 2 7 6 4 9 6 2 2 1 1 4 5 3 2 3 2 1 0 1 0 2 3 2 1 1 3 5 4 5 5 4 4 7 9 11 14 12 11 16 23 27
2 2 2 2 2 2 2 3 4 6 4 2 2 3 7 4 2 1 2 3 2 2 2 1 4 4 3 3 3 4 3 3 4 5 4 3 5 4 3 5 6 3 2 2 1 3 3 1 6 4 3 7 5 1 1 2 3 1 1 3 3 3 3 3 2 1 2 1 3 3 1 2 2 2 4 5 7 6 5 7 8 9 10 7 7 11 18 23
2 3 2 2 2 2 3 3 5 5 3 1 3 5 5 1 3 1 2 4 2 3 2 1 3 5 4 3 3 3 3 3 4 5 5 4 3 3 4 4 6 4 3 3 1 0 3 1 4 2 3 5 4 2 1 3 3 1 1 2 2 1 3 3 2 3 3 2 1 1 2 3 3 3 4 5 7 6 4 6 6 6 5 3 6 9 14 19
3 3 3 2 2 3 3 3 4 4 3 1 5 4 2 3 2 3 1 2 1 2 2 3 4 5 4 4 4 5 3 3 4 4 4 3 1 2 2 3 4 4 2 2 1 0 2 1 4 4 3 3 3 2 3 2 1 0 2 2 1 2 6 5 2 1 3 2 1 1 3 4 3 3 4 6 7 6 4 5 5 3 1 3 6 9 12 16
2 3 3 3 3 3 3 3 3 2 3 1 5 2 3 2 3 3 1 2 1 1 3 2 2 2 2 3 4 6 5 3 4 4 3 2 2 3 4 3 2 2 2 1 2 1 2 2 2 2 2 2 3 2 4 5 2 1 2 3 1 2 4 4 2 3 4 1 2 1 2 4 2 2 4 6 5 7 5 4 4 2 1 4 7 9 11 14
3 4 2 3 3 3 4 3 2 3 2 3 4 1 2 1 2 2 2 2 1 3 4 2 1 1 1 0 2 5 4 3 3 4 2 1 2 2 3 3 2 2 4 2 2 1 1 2 2 1 1 3 4 3 3 7 6 3 5 4 2 2 1 2 2 1 2 0 3 4 3 3 3 4 3 3 5 7 6 4 4 3 4 5 7 9 11 13
4 3 1 2 4 3 3 2 2 2 1 4 2 2 1 1 1 2 2 2 1 2 2 2 1 1 1 2 1 3 3 3 2 2 2 1 2 2 2 2 3 4 6 3 2 1 0 3 1 3 1 2 4 5 2 5 6 4 4 2 2 2 2 1 2 2 2 1 1 3 3 3 5 5 4 6 8 7 6 4 5 7 7 6 7 8 10 12
4 1 1 2 4 4 2 1 1 1 3 2 3 2 0 1 2 4 3 3 2 1 1 1 2 1 0 1 0 1 2 3 2 2 1 1 1 2 2 1 2 6 8 3 3 2 2 3 1 4 4 2 2 3 1 2 3 3 3 3 2 2 2 1 2 2 2 2 2 1 3 4 5 3 5 6 7 7 8 6 7 10 10 8 7 7 8 10
5 0 1 3 5 4 3 2 3 4 3 2 1 1 0 1 3 4 4 3 2 1 1 1 2 2 1 0 1 0 2 3 2 2 1 1 1 1 2 1 1 4 6 3 3 2 1 3 2 1 4 3 1 1 1 2 2 2 1 1 2 2 3 3 1 2 2 2 2 2 2 6 5 2 4 5 4 5 6 8 9 11 11 10 8 8 8 8
5 1 1 5 5 3 2 3 4 3 3 2 1 1 0 1 2 3 3 3 2 1 1 1 1 1 2 1 0 1 2 2 2 2 0 1 0 1 2 3 3 3 1 2 1 1 1 3 4 2 1 1 3 2 1 1 2 4 1 1 3 2 4 5 0 2 2 2 1 3 0 6 5 3 4 5 4 3 3 7 10 11 12 11 10 9 9 9
5 2 3 7 6 2 2 2 3 3 2 1 1 1 1 1 1 2 3 2 2 1 1 1 1 0 1 1 1 1 2 1 1 1 0 2 2 2 2 4 4 2 1 1 2 2 2 3 4 2 4 4 4 4 1 1 2 3 1 1 2 2 2 4 3 2 3 2 1 2 1 5 4 3 4 5 6 5 4 6 8 11 12 13 13 12 11 11
4 3 4 6 5 3 1 1 1 1 0 1 2 2 2 1 1 2 2 1 1 2 1 1 1 0 1 0 2 1 1 1 0 1 0 1 1 1 2 4 3 2 2 1 1 2 2 1 4 3 3 4 5 5 4 3 1 1 1 1 2 3 5 3 2 3 1 2 4 3 2 5 3 2 3 4 4 6 6 5 5 9 12 14 14 14 13 13
4 3 3 5 5 3 2 3 5 5 2 2 3 1 1 2 2 1 2 3 3 2 2 1 2 1 0 1 3 2 1 1 1 0 0 1 2 1 2 3 3 2 3 1 1 2 2 2 3 5 4 2 1 2 3 3 2 1 1 1 0 3 4 1 1 3 1 1 3 4 4 6 5 5 3 2 2 4 5 4 3 7 12 14 14 14 14 14
4 2 1 3 3 2 0 2 6 7 4 4 3 1 1 2 1 1 3 3 3 3 2 0 1 1 1 2 3 3 3 2 1 2 1 1 2 2 2 3 2 3 3 2 3 3 4 3 3 6 6 4 5 5 4 1 1 1 1 1 1 2 3 3 3 1 3 2 1 5 5 5 9 6 5 5 3 4 6 5 4 6 11 15 15 14 15 14
3 2 2 2 2 1 3 2 5 6 5 6 3 2 3 2 0 1 2 1 2 3 2 1 1 0 0 1 2 1 2 3 2 2 1 2 2 2 2 2 1 1 1 2 3 3 4 2 2 4 3 3 5 3 3 1 1 2 1 1 1 1 3 4 3 4 4 3 4 7 4 2 8 6 5 6 4 4 6 6 6 7 11 15 16 16 16 16
3 2 3 3 2 1 2 4 7 7 5 5 3 2 4 3 1 2 1 0 2 2 1 1 1 2 3 2 2 2 1 3 2 0 1 1 2 2 3 1 1 1 1 2 2 3 5 2 1 2 1 2 2 2 3 1 1 2 2 3 3 3 5 6 6 6 6 4 5 4 5 5 9 7 6 8 8 7 7 5 6 8 11 14 17 18 19 18
4 1 2 4 3 2 2 5 10 10 6 3 2 2 5 5 4 3 1 2 1 1 2 1 4 3 2 1 2 3 2 2 1 2 2 2 0 1 1 0 1 1 1 2 3 2 4 2 1 1 1 2 1 2 2 1 2 3 4 6 5 5 7 7 5 4 5 6 7 3 4 10 12 10 12 16 15 13 12 10 9 10 13 15 17 19 21 20
4 2 3 3 2 4 6 7 10 9 3 2 1 2 4 6 6 3 2 4 2 1 4 3 4 3 2 2 2 1 4 6 4 3 4 4 0 1 2 1 1 2 3 2 2 2 3 1 1 2 2 3 3 3 3 2 1 4 6 5 4 3 4 4 4 2 3 6 7 3 5 11 9 8 13 17 13 10 13 16 16 15 13 15 18 20 22 23
6 3 3 3 2 3 4 5 6 5 1 1 3 4 4 6 8 5 2 2 3 3 6 6 5 4 3 2 1 5 5 4 3 3 6 5 2 3 2 1 2 2 3 2 2 3 3 2 0 4 3 4 4 5 6 4 1 4 9 9 8 6 4 4 4 4 6 5 3 1 3 8 6 3 6 9 7 8 12 15 16 17 15 16 19 21 22 23
9 5 5 3 1 1 4 3 3 3 3 3 4 5 4 6 10 9 4 2 2 3 5 8 9 6 2 1 3 4 3 3 2 3 6 5 5 7 7 5 5 4 2 2 2 3 3 4 1 3 2 5 4 4 5 6 5 4 8 9 10 8 5 3 3 6 8 6 5 4 7 6 2 1 2 4 5 7 10 11 11 15 16 17 19 21 22 22
Wind_Direction
351 349 346 343 338 336 337 322 307 297 273 232 234 244 270 327 352 4 2 358 354 349 344 338 334 330 326 321 313 303 302 304 307 311 307 303 295 302 318 323 327 327 319 307 308 297 292 294 239 208 170 165 166 164 160 153 155 157 153 193 210 201 206 194 188 170 140 139 156 158 146 132 126 126 129 130 125 121 125 123 126 138 137 147 155 152 153 154
351 349 345 342 339 340 333 315 305 295 262 211 213 234 269 336 6 10 2 356 350 344 337 331 327 326 323 318 313 303 300 302 305 306 297 289 283 295 309 317 325 327 326 316 321 328 287 313 245 199 179 172 161 159 155 147 152 151 142 192 210 194 196 221 186 156 146 158 151 150 147 139 139 139 139 133 122 122 115 114 125 127 129 144 153 153 155 156
353 350 346 341 336 333 324 309 302 287 232 189 200 224 262 6 16 10 360 351 343 336 331 327 323 323 322 317 315 306 301 305 306 302 284 275 282 296 308 318 330 330 326 330 335 5 138 117 186 178 177 183 172 164 158 149 156 162 161 194 221 195 231 330 161 131 125 148 134 132 145 137 141 147 144 133 121 125 124 133 135 129 134 147 153 155 157 157
357 353 347 342 334 331 323 304 297 260 186 183 188 195 232 31 23 8 353 342 336 333 330 327 324 324 324 320 318 308 309 313 308 303 267 273 297 298 314 322 331 336 322 331 346 348 145 157 175 173 172 180 184 180 168 151 154 171 177 195 207 178 223 50 162 146 114 126 117 118 133 128 142 150 144 136 124 132 156 153 150 145 146 151 154 156 157 158
357 354 349 345 336 335 324 301 292 223 183 181 177 174 128 50 22 1 344 336 336 335 332 329 328 329 327 324 320 312 322 326 339 62 57 326 325 308 318 320 325 332 317 323 337 321 183 166 173 179 178 168 174 192 179 155 145 151 170 137 118 161 123 65 166 164 140 134 123 118 124 125 135 135 144 147 130 161 162 160 158 154 154 155 155 156 158 160
356 352 350 349 341 338 321 301 275 205 184 177 170 164 116 55 15 354 343 343 344 339 333 333 335 334 330 327 321 314 316 286 266 6 332 314 324 314 316 314 317 326 313 311 308 264 218 174 169 181 196 177 170 183 167 157 150 150 168 84 62 95 79 89 149 157 155 148 137 132 130 126 121 105 122 120 87 144 159 162 159 155 158 158 156 156 159 162
353 352 348 347 344 339 319 296 237 195 182 176 169 156 118 50 10 356 357 0 352 340 335 337 341 340 336 330 323 309 273 261 280 311 313 308 314 312 314 310 311 318 308 301 277 248 227 181 176 182 190 248 173 177 154 155 158 156 122 91 68 82 70 95 139 146 152 144 136 138 129 116 112 98 89 82 98 139 156 161 157 155 159 160 159 159 161 164
352 351 346 342 342 337 316 284 218 193 179 173 167 152 117 42 8 5 11 10 357 343 337 340 346 345 343 336 331 317 282 277 292 310 314 311 312 312 313 309 310 311 298 291 259 239 229 195 189 184 192 233 184 174 153 148 160 159 104 109 88 86 88 111 128 131 137 131 130 128 110 98 107 111 86 58 113 138 153 156 153 155 158 161 161 160 163 165
350 348 343 337 337 332 314 277 212 191 177 171 166 152 114 35 8 10 15 10 357 345 338 343 349 348 347 340 334 324 299 302 314 316 315 313 316 314 311 310 312 309 295 285 249 224 227 209 194 189 215 224 190 168 160 159 169 152 115 105 98 93 106 120 115 113 122 126 131 121 93 105 111 106 82 54 129 142 156 152 151 155 157 161 161 161 165 168
348 345 341 334 334 332 316 260 206 188 177 173 167 151 114 31 5 8 13 6 355 344 337 342 347 345 341 332 332 331 327 333 324 319 315 314 316 310 310 310 309 310 301 272 229 223 221 212 198 195 220 217 195 177 170 177 152 128 105 92 99 99 104 118 116 115 116 116 129 124 104 107 106 101 91 128 138 147 155 149 152 156 157 162 163 163 167 170
346 344 340 332 333 333 317 235 199 186 177 175 167 151 117 29 3 7 9 0 350 342 334 335 339 342 336 323 311 285 323 332 325 321 315 311 314 307 307 308 304 303 292 255 216 216 215 210 196 189 223 218 185 171 164 161 137 125 108 84 91 97 91 102 115 123 119 84 111 118 108 78 69 73 110 149 146 151 153 148 154 156 158 163 165 168 170 172
344 342 337 329 333 333 317 224 196 185 179 176 167 150 117 29 2 5 4 354 343 334 324 324 329 336 334 320 298 286 319 328 323 319 313 311 315 308 307 306 297 290 269 233 214 213 210 206 199 197 252 168 160 152 153 147 133 127 118 97 93 96 76 64 91 118 118 102 102 110 107 55 44 71 128 150 153 158 153 150 155 156 160 164 168 171 172 176
343 342 336 330 335 332 311 222 194 184 180 177 167 147 117 30 5 4 1 351 338 327 319 317 322 329 330 320 304 304 320 325 321 316 313 314 317 308 305 302 281 276 262 222 213 210 209 215 211 208 242 182 150 141 145 136 122 123 121 115 117 103 55 22 67 118 119 132 97 99 117 103 67 105 140 153 158 162 156 154 160 160 161 165 170 174 176 181
343 342 335 334 337 330 306 218 192 185 182 177 165 146 118 29 4 359 357 349 337 327 316 311 322 330 326 319 321 326 325 328 323 315 316 314 312 307 300 291 271 272 264 218 210 206 210 219 216 224 246 191 141 127 130 120 96 115 123 125 129 115 64 25 65 116 124 133 45 62 134 146 138 141 146 155 160 164 156 155 164 167 167 167 172 177 181 186
344 342 339 341 337 327 305 211 190 186 183 178 166 150 131 15 350 346 348 346 341 332 319 313 329 331 323 323 335 330 331 334 327 319 319 312 310 309 289 268 259 265 254 205 209 208 206 210 226 262 182 150 139 128 116 84 78 109 138 143 131 109 54 30 60 58 84 128 42 55 139 122 146 157 153 153 157 165 160 158 165 171 174 173 176 180 185 189
346 346 347 346 336 329 304 210 189 187 186 179 168 162 185 320 336 335 338 344 346 340 330 328 338 334 319 346 346 339 337 336 333 328 320 315 316 315 300 255 237 248 225 195 207 202 196 204 238 212 145 144 144 131 103 88 70 339 149 146 141 129 90 18 46 11 21 96 35 26 152 117 139 154 153 151 152 161 161 163 170 177 182 181 184 188 191 195
349 351 349 344 338 333 305 203 188 190 188 180 177 185 238 311 330 331 338 347 350 347 343 347 343 335 229 346 342 338 338 335 331 331 325 323 325 323 327 169 196 209 178 177 192 188 184 193 198 157 149 150 148 133 125 136 159 91 106 121 127 129 124 95 117 319 31 72 32 25 112 102 112 143 148 155 156 156 157 167 176 183 190 190 193 196 197 201
351 353 348 344 342 339 306 199 190 191 189 185 187 209 269 309 323 328 344 353 353 355 4 355 354 355 228 330 334 333 337 339 340 339 330 322 325 330 57 142 163 165 149 143 166 177 170 163 161 152 144 149 159 156 158 170 163 154 148 131 121 125 133 133 155 218 52 79 100 73 86 94 97 135 153 169 171 168 166 175 183 188 195 198 200 202 202 204
353 354 349 348 349 346 299 197 190 190 192 190 195 237 289 315 320 329 352 0 4 15 37 342 357 38 268 316 331 338 341 346 356 350 334 320 318 111 117 132 158 156 136 118 149 176 151 122 142 153 159 156 157 173 159 143 145 145 136 127 132 129 123 141 152 11 61 103 71 67 92 116 125 146 168 181 183 183 184 187 196 200 204 206 207 207 206 207
355 356 350 352 355 351 292 195 191 193 196 192 207 265 312 341 339 338 350 0 15 17 344 331 342 327 304 317 339 351 352 358 5 3 358 358 117 131 99 117 149 131 106 131 160 181 142 109 94 133 151 135 110 330 118 109 115 123 119 119 129 127 110 120 124 357 325 81 42 49 98 111 137 154 171 181 181 188 198 198 203 212 216 218 217 213 210 211
356 357 351 356 1 358 272 193 193 195 197 196 218 281 353 15 13 345 342 345 4 2 350 334 331 335 339 342 351 357 0 11 23 20 17 41 104 120 117 125 122 73 19 183 128 97 122 104 13 353 317 27 358 232 125 106 107 110 116 129 122 122 108 75 119 354 333 51 45 18 76 92 129 150 159 170 178 199 210 208 206 216 226 228 225 220 216 215
359 357 353 360 6 8 184 192 195 199 201 202 221 264 4 27 13 353 343 309 328 357 357 346 342 356 3 358 355 355 357 9 22 22 18 16 25 357 179 100 89 88 353 21 104 89 87 76 322 320 304 331 23 140 123 106 105 104 108 132 124 125 111 60 58 27 1 44 39 354 45 96 137 150 168 179 194 209 216 216 214 216 226 233 228 222 218 217
357 357 357 0 11 20 181 190 199 203 204 209 226 255 316 359 353 356 353 303 306 352 356 352 355 3 4 2 355 351 356 8 1 8 16 14 14 44 102 92 79 82 13 38 103 112 97 38 315 322 301 84 76 89 112 97 80 100 114 127 130 137 129 111 82 37 17 55 136 105 45 330 144 146 184 196 207 214 218 222 224 221 224 233 231 223 218 218
354 359 356 2 20 41 180 192 203 208 208 216 230 252 297 333 340 349 349 308 270 342 354 352 355 3 3 360 355 350 356 4 346 359 14 21 26 48 82 88 77 57 17 63 91 87 89 339 331 354 335 108 108 105 111 108 79 87 114 128 147 146 119 116 130 119 44 37 83 111 51 324 244 186 208 197 206 218 220 221 227 228 227 232 232 226 222 221
353 356 353 12 29 55 168 193 208 213 217 225 236 258 284 312 333 345 353 22 283 333 353 354 354 5 3 357 357 3 33 18 3 4 13 25 24 41 61 43 67 48 347 68 82 81 38 346 351 28 67 88 107 104 95 124 123 99 96 133 158 152 119 119 132 129 90 28 348 98 79 300 293 249 216 163 188 216 219 219 224 228 228 229 230 226 224 223
352 353 348 19 47 86 153 190 213 220 226 235 245 266 282 297 327 342 2 63 350 322 345 353 356 4 0 357 358 19 87 6 4 13 18 29 28 60 71 17 59 87 115 107 87 98 352 355 21 45 82 86 95 91 352 106 127 133 177 127 119 132 129 136 143 133 123 172 282 68 125 264 315 287 250 165 192 213 213 218 224 225 226 227 228 226 224 223
351 352 344 37 82 110 163 194 216 218 225 247 255 268 281 294 317 324 358 47 1 318 334 345 354 356 355 3 8 32 137 330 359 21 20 32 43 74 83 13 45 50 234 128 61 49 343 2 30 41 67 77 84 83 342 352 122 133 167 140 130 133 136 139 133 112 127 141 46 30 95 99 303 282 310 71 221 241 226 220 222 223 225 226 227 226 224 224
353 351 340 165 149 159 183 197 212 212 222 255 271 276 276 305 326 335 73 72 332 326 341 337 350 355 354 12 22 31 283 332 12 13 15 40 57 73 79 47 83 38 350 106 83 6 14 10 5 20 60 66 64 246 300 359 97 123 149 130 128 126 119 110 101 93 87 105 65 339 47 92 267 275 348 26 291 268 249 228 210 215 223 225 226 226 225 225
354 350 316 179 187 167 166 186 203 200 214 245 323 343 245 25 17 53 73 93 301 335 344 341 347 349 351 10 21 17 8 8 26 6 25 53 60 76 88 84 100 71 35 77 101 335 55 3 311 63 69 55 300 258 245 89 85 149 124 102 94 85 76 76 92 103 60 63 142 301 19 95 270 279 356 49 285 257 255 252 203 209 221 225 225 225 224 223
354 354 171 179 165 154 162 169 177 182 202 222 100 92 100 44 43 61 49 246 284 336 323 344 341 334 350 11 9 4 7 12 12 21 41 55 59 67 81 97 91 75 43 61 75 11 318 4 68 69 61 279 270 302 301 120 130 135 115 93 88 60 49 59 55 82 68 15 261 320 7 96 290 281 217 190 230 226 240 280 249 211 218 224 226 224 222 221
355 6 149 164 157 165 175 170 166 171 177 150 122 98 53 9 57 87 62 254 271 336 334 348 336 340 5 39 9 349 352 360 7 25 33 32 45 43 42 60 58 53 38 39 40 8 19 37 33 22 21 356 333 21 21 35 105 112 111 114 107 54 23 45 15 44 85 273 272 322 12 127 204 261 235 227 242 218 199 242 276 244 229 230 229 224 222 220
1 26 147 153 166 168 176 190 184 160 158 125 92 54 105 23 26 105 287 316 315 324 348 319 319 351 356 12 20 341 335 355 6 34 34 12 44 35 28 51 24 42 38 7 356 13 22 22 342 348 23 24 21 64 40 13 34 89 128 130 113 97 53 70 31 24 113 243 283 313 149 170 234 249 246 243 247 239 227 254 276 279 274 261 240 227 221 219
14 67 141 155 176 166 169 195 187 162 157 113 75 38 84 70 20 224 270 338 301 284 334 281 300 335 337 4 10 332 347 11 354 24 37 27 57 38 21 44 34 129 81 28 19 21 27 338 357 8 12 11 19 111 104 343 55 108 139 131 119 127 101 113 112 15 268 258 307 300 228 243 268 270 249 233 256 286 294 296 290 286 286 277 252 231 220 217
55 102 138 166 168 163 161 175 176 168 163 123 100 52 62 73 234 217 274 272 250 306 342 301 310 338 12 36 341 317 25 38 356 18 17 29 44 9 347 13 22 58 100 82 45 35 85 346 359 17 335 351 9 91 151 131 98 86 171 118 119 140 133 160 167 132 182 237 323 309 257 195 208 274 257 255 298 318 315 312 305 300 296 269 233 223 217 215
98 116 146 162 155 164 154 159 174 172 180 165 70 64 78 164 235 179 255 258 270 316 318 6 18 21 9 349 331 350 40 22 8 34 25 29 49 4 348 338 355 28 83 80 24 66 90 298 295 314 318 339 352 317 341 77 86 316 306 73 68 140 133 128 148 157 148 122 339 276 248 223 215 270 297 309 319 320 322 328 321 316 313 219 197 207 210 211
117 126 148 162 166 167 147 158 176 179 225 208 61 61 156 196 202 163 191 297 303 313 327 357 31 42 352 323 338 353 13 22 23 41 25 20 35 348 348 293 326 21 59 90 106 194 91 318 298 339 356 338 351 353 8 42 141 148 61 67 301 128 119 110 106 77 88 122 227 269 267 294 317 304 328 353 335 315 320 339 343 340 355 166 185 198 205 208
133 132 148 165 167 163 156 167 179 205 262 94 80 95 213 190 177 176 20 349 299 21 60 32 2 33 345 323 328 326 344 15 23 41 25 2 16 351 337 301 302 25 7 96 124 201 122 129 297 359 59 326 340 33 36 46 82 124 118 166 201 100 104 103 96 23 44 140 272 327 275 302 333 290 330 353 322 292 291 319 337 336 168 176 184 189 199 205
135 124 130 172 173 164 162 161 178 226 273 60 80 148 198 154 190 183 38 20 311 19 72 117 302 30 174 202 320 313 341 8 7 44 52 6 19 342 331 322 297 16 359 353 113 97 103 104 301 260 151 312 341 49 37 23 36 93 136 143 115 114 117 43 85 112 82 177 292 318 302 274 212 223 296 293 246 248 259 285 293 246 200 188 186 184 193 200
150 122 72 200 181 166 158 162 220 244 45 69 108 191 179 196 174 125 75 60 61 18 52 169 206 49 138 153 301 304 354 32 21 57 82 62 27 352 357 342 290 341 355 358 114 73 54 92 343 288 261 317 3 47 35 339 357 38 81 40 10 121 153 70 85 132 136 137 273 316 326 274 229 217 207 218 224 218 221 249 249 226 207 192 189 185 190 197
181 142 349 220 179 161 155 158 211 68 70 97 182 189 173 206 139 105 84 68 78 54 341 204 155 80 238 203 275 327 24 51 64 68 72 81 30 349 359 22 281 322 340 6 95 25 14 90 106 303 339 13 20 45 126 250 317 356 27 19 16 58 98 135 79 69 91 123 175 318 322 273 254 210 182 214 229 209 203 213 223 217 205 193 189 182 187 192
189 170 288 194 160 148 146 92 55 69 90 113 174 170 308 172 142 106 83 74 74 62 303 214 155 141 166 134 23 54 57 39 40 64 57 31 56 17 327 11 327 315 335 20 55 21 19 92 116 345 13 41 268 296 160 192 197 172 91 88 128 97 106 113 18 343 69 98 156 144 292 273 264 206 196 227 232 214 212 218 224 217 204 198 191 181 183 185
183 176 204 179 160 145 128 70 43 61 98 106 86 91 177 145 127 112 94 80 65 44 330 252 159 136 149 131 14 144 111 51 26 48 81 272 126 191 282 331 336 315 6 62 334 327 118 97 81 55 5 230 272 301 79 138 158 144 118 120 137 96 96 113 177 274 87 66 111 111 292 274 266 222 224 251 267 268 240 234 239 227 206 201 199 189 187 187
184 181 186 185 179 159 98 49 22 28 58 92 74 82 115 108 104 119 101 66 54 54 11 317 296 31 178 174 117 133 125 99 39 7 240 250 258 230 278 337 346 332 46 96 276 336 49 83 78 8 309 314 316 321 4 34 94 109 9 72 119 34 67 131 162 143 121 154 146 73 318 274 276 262 244 256 274 279 267 259 252 232 212 204 202 199 196 194
167 155 165 179 193 207 202 171 131 109 313 47 53 47 54 56 73 107 123 110 105 105 79 294 263 324 333 45 95 136 157 113 79 313 218 200 269 293 315 350 9 33 49 49 313 10 18 108 100 64 358 347 344 341 336 328 10 113 349 29 82 70 79 116 123 72 73 194 144 109 260 256 271 318 273 246 272 277 264 264 256 224 208 205 204 203 202 201
145 136 153 176 202 235 245 203 154 143 170 113 89 75 44 50 38 56 109 128 123 119 120 293 292 294 340 39 54 33 4 87 128 301 353 265 282 306 5 12 19 50 57 44 12 53 98 125 106 113 128 165 229 258 262 256 265 300 36 49 81 97 104 155 92 59 334 225 140 159 226 263 295 336 333 279 282 281 256 244 241 210 200 203 205 204 205 205
144 145 170 180 219 236 166 192 151 132 155 147 111 169 125 75 356 61 89 112 121 120 119 14 303 325 16 50 46 8 350 14 81 123 130 267 273 291 352 11 26 44 59 61 38 66 102 84 81 130 149 174 191 211 244 235 165 250 234 179 206 137 120 112 91 105 218 162 197 222 211 287 304 315 326 308 290 259 246 235 224 206 200 203 205 204 207 207
156 214 207 156 206 155 86 158 157 128 152 161 136 168 159 135 307 77 68 71 131 132 119 60 66 39 289 121 93 15 338 358 23 83 126 253 273 297 315 334 27 30 81 82 41 67 99 76 62 116 139 206 198 220 299 4 168 225 230 195 220 182 132 131 161 212 172 120 287 258 190 238 278 269 279 292 292 272 258 240 223 214 206 205 205 207 209 209
178 237 222 185 206 179 105 191 172 125 118 140 115 123 149 146 182 171 154 69 123 146 137 74 299 219 221 216 128 111 4 17 19 60 157 224 279 344 354 355 56 63 104 74 33 82 106 111 224 122 82 260 232 283 312 304 237 241 210 221 225 183 173 191 217 209 167 176 249 228 163 224 261 263 261 263 264 274 285 274 238 223 213 208 208 208 211 212
182 194 203 196 206 161 126 169 158 129 104 107 95 135 164 169 189 204 175 99 65 291 136 171 264 231 207 298 83 134 186 129 114 257 208 157 232 13 40 9 54 59 80 64 33 66 106 114 220 129 51 310 296 307 328 43 343 294 246 226 210 195 198 210 235 219 191 235 255 221 234 266 265 255 259 269 272 270 272 273 258 237 221 213 211 212 214 214
181 176 183 170 119 101 108 134 143 129 84 50 110 171 172 172 187 208 183 143 148 207 162 186 248 208 120 59 73 198 220 177 164 220 184 139 83 216 185 209 155 56 32 52 21 19 82 109 215 103 49 321 332 358 9 44 52 270 273 249 198 206 233 230 241 215 198 262 269 254 276 281 270 242 254 273 282 269 259 259 255 249 235 219 217 218 217 216
192 193 192 163 82 88 114 130 133 123 87 262 177 180 181 193 192 170 145 188 173 170 183 182 173 146 77 66 220 280 273 216 207 213 170 141 149 177 164 223 173 113 28 40 356 355 68 100 45 71 55 298 324 8 344 343 37 260 276 261 216 200 212 210 208 194 187 206 217 148 262 267 268 251 256 271 274 258 261 263 256 250 241 229 225 224 222 220
204 207 208 181 104 164 161 131 94 120 193 216 178 175 186 198 187 160 130 261 222 178 199 178 149 128 74 159 225 269 301 283 256 160 135 119 117 121 104 91 106 110 132 123 46 4 86 117 141 91 90 274 307 3 340 350 13 295 268 244 210 197 205 232 243 222 205 176 149 190 229 240 262 33 241 259 257 253 269 283 273 257 247 241 236 232 229 227